Regional Weather Roundup
Issued by NWS

Home | Current Version | Previous Version | Graphics & Text | Print | Product List | Glossary On
Versions: 1 2 3 4 5 6 7 8 9 10 11 12 13 14 15 16 17 18 19 20 21 22 23 24 25 26 27 28 29 30 31 32 33 34 35 36 37 38 39 40 41 42 43 44 45 46 47 48 49 50
812
ASUS45 KCYS 212010
RWRWY

WYOMING REGIONAL WEATHER ROUNDUP
NATIONAL WEATHER SERVICE CHEYENNE WY
100 PM MST SAT JAN 21 2017

NOTE:  "FAIR" INDICATES FEW OR NO CLOUDS BELOW 12,000 FEET
WITH NO SIGNIFICANT WEATHER AND/OR OBSTRUCTIONS TO VISIBILITY.

WYZ001-212100-
YELLOWSTONE NATIONAL PARK

CITY           SKY/WX    TMP DP  RH WIND       PRES   REMARKS
LK YELLOWSTONE   N/A     18  13  80 E3        29.43S
W YELLOWSTONE  NOT AVBL

$$
WYZ002>013-054>058-071-098>099-212100-
NORTHERN WYOMING

CITY           SKY/WX    TMP DP  RH WIND       PRES   REMARKS
JACKSON        PTSUNNY   21  18  86 CALM      29.45S
CODY           FAIR      26  16  65 NE7       29.40R WCI  18
GREYBULL       FAIR      15  13  91 CALM      29.46S
WORLAND        FAIR      18  16  92 CALM      29.44S
SHERIDAN       FAIR      31  20  63 VRB6      29.40S WCI  25
BUFFALO        FAIR      32  23  69 SE7       29.39S WCI  26
GILLETTE       FAIR      38  28  67 NE5       29.39S WCI  34
HULETT         FAIR      32  30  93 SW6       29.41S WCI  26
NEWCASTLE      CLOUDY    32  28  86 W3        29.42S

$$
WYZ014>020-022>026-101>103-212100-
CENTRAL WYOMING

CITY           SKY/WX    TMP DP  RH WIND       PRES   REMARKS
BIG PINEY      CLOUDY    20  14  77 CALM      29.43R
PINEDALE       MOCLDY    21  14  73 W8        29.43R WCI  12
DUBOIS         NOT AVBL
LANDER         PTSUNNY   20  13  74 CALM      29.41R
RIVERTON       FOG      N/A N/A N/A CALM      29.42S VSB 1/4
CASPER         FAIR      33  21  61 SW8       29.39R WCI  26
DOUGLAS        FAIR      37  24  59 CALM      29.39S

$$
WYZ021-027>030-104>119-212100-
SOUTHERN WYOMING

CITY           SKY/WX    TMP DP  RH WIND       PRES   REMARKS
EVANSTON       LGT SNOW  20  16  84 SW10      29.47R FOG     WCI   9
ROCK SPRINGS   CLOUDY    20  17  88 W3        29.43S
RAWLINS        FAIR      30  18  60 CALM      29.39R
LARAMIE        CLOUDY    21  15  78 W5        29.35S WCI  15
CHEYENNE       FAIR      35  20  54 S7        29.37S WCI  29
TORRINGTON     FAIR      41  23  48 VRB3      29.38F

$$




USA.gov is the U.S. government's official web portal to all federal, state and local government web resources and services.